User: anonymous   Login
Location: Gorze? G�rny
(49.8500°N, 19.5000°E)
Time: 03:50:08
(UTC+00:00)
Language:

Okean 1-7 - Orbit

View from above orbital plane
View from above orbital plane
View from above satellite
View from above satellite

Ground track
Ground track

The orbit data is extracted from the following two-line orbital elements,

1 23317U 94066A   21207.58450409  .00000291  00000-0  28921-4 0  9996
2 23317  82.5390 146.7857 0021066 120.2795 240.0511 14.87945670448992
Epoch (UTC): 26 July 2021 14:01:41
Eccentricity: 0.0021066
inclination: 82.5390°
perigee height: 589 km
apogee height: 619 km
right ascension of ascending node: 146.7857°
argument of perigee: 120.2795°
revolutions per day: 14.87945670
mean anomaly at epoch: 240.0511°
orbit number at epoch: 44899

The dashed part of the orbit path shows where the satellite is in the earth's shadow,  

DLR